DELTA 1 DEB, 21384

Orbit data source: Space-Track

DELTA 1 DEB, 21384 is space debris in SSO originally from a launch on Thu, 12 Jun 1975 UTC launched from the Air Force Western Test Range (AFWTR). Debris objects in space refer to the collection of defunct objects orbiting the Earth. Examples of debris include non-operational satellites, rocket bodies, and fragments generated from explosions, collisions, or faulty payload assembly.

Loading next visibility...
Identifier
21384, 1975-052DE
Orbit
SSO
Country
Flag of USUS
Related business
Manufacturer
Unknown
Mission
Spacecraft
Bus & Motor
Unknown
Mass
Unknown
Launch date (UTC)
1975-06-12 (50 years ago)
Launch vehicle
Unknown
Launch site
Air Force Western Test Range (AFWTR)
Object type
Payload
Rocket body
Debris
Shape & HBR
Unknown shape, 0.1 m
Radar Cross Section
Small (<0.1 m²)

Expand to show TLE details & history
Last TLE update: 1 day ago

TLE from 1 day ago
0 DELTA 1 DEB
1 21384U 75052DE  25299.55087038  .00000183  00000-0  68263-3 0  9990
2 21384  99.6494 170.5173 0295661 351.8136  71.8730 12.91231305620776
Epoch: 2025-10-26T13:13Z
TLE epoch observation values (Epoch: 2025-10-26T13:13:15.200Z)
Latitude
65.19078°
Longitude
-84.42785°
Altitude
1,243.335 km
Speed
7.27 km/s
True Right ascension
09h 56m 12s
True Declination
65° 04' 04"
Sunlit
Object was in daylight at epoch
Visualization orbit readout
Latitude
Unknown
Longitude
Unknown
Altitude
Unknown
Speed
Unknown
Apparent Right ascension
Unknown
Apparent Declination
Unknown
Sunlit
N/A
Visualization observer readout
Local Sidereal Time
16:43:25
Azimuth
Unknown
Elevation
Unknown
Doppler factor
Unknown
Orbital elements
Apogee altitude
1,520.851 km
Perigee altitude
1,067.18 km
Semi-major axis
7,672.152 km
Eccentricity
0.02957
Inclination
99.6494°
RAAN
170.5173°
Arg. of periapsis
351.8136°
True anomaly
75.12856°
Mean anomaly
71.873°
Eccentric anomaly
73.49723°
Mean motion
3.22974 °/min
Orbital period
111.46 mins
BSTAR
0.00068263
Loading maneuver chart data...
Computing Atmospheric mass density...
Loading historical data...
Loading historical data...
Loading historical data...
Loading historical data...
Loading historical data...
Loading historical data...
Loading historical data...

Documentation

Showing up to 5 results
|